Miscellaneous Local Product
Issued by NWS North Platte, NE

Home | Current Version | Previous Version | Graphics & Text | Print | Product List | Glossary On
Versions: 1 2 3 4 5 6 7 8 9 10 11 12 13 14 15 16 17 18 19 20 21 22 23 24 25 26 27 28 29 30 31 32 33 34 35 36 37 38 39 40 41 42 43 44 45 46 47 48 49 50
817
AXUS43 KLBF 261710
MISLBF


WESTERN AND NORTH CENTRAL NEBRASKA HOURLY WEATHER ROUNDUP
NATIONAL WEATHER SERVICE NORTH PLATTE NE
1200 PM CDT MON SEP 26 2016

NOTE: "FAIR" INDICATES FEW OR NO CLOUDS BELOW 12,000 FEET WITH NO
SIGNIFICANT WEATHER AND/OR OBSTRUCTIONS TO VISIBILITY.

NOTE: STATIONS NOT REPORTING VARIABLES SUCH AS SKY/WEATHER OR
PRESSURE ARE PROVIDED BY RAWS AND APRS NETWORKS AND ARE NOT UNDER
NATIONAL WEATHER SERVICE QUALITY CONTROL.

...OBSERVATIONS IN AND NEAR THE EASTERN PANHANDLE OF NEBRASKA...

CITY           SKY/WX    TMP DP  RH WIND       PRES   REMARKS
PINE RIDGE     SUNNY     67  41  38 W10       30.30F
CHADRON        SUNNY     68  38  33 NW16      30.32S
ALLIANCE       SUNNY     69  37  30 N14G20    30.33F
SIDNEY         SUNNY     68  37  32 NW13G18   30.37F
CRESCENT LAKE    N/A     69  38  31 NW9G18      N/A
$$

...OBSERVATIONS IN NORTHERN NEBRASKA AND FAR SOUTHERN SOUTH DAKOTA...

CITY           SKY/WX    TMP DP  RH WIND       PRES   REMARKS
WINNER         FAIR      71  37  28 NW16      30.22S
VALENTINE      SUNNY     68  34  28 W16G24    30.25F
THEDFORD       SUNNY     72  39  30 W16G23    30.28S
AINSWORTH      SUNNY     68  39  34 NW15      30.25S
O`NEILL        SUNNY     70  30  22 W14G20    30.23F
ORD            SUNNY     69  33  26 W13G21    30.24F
BROKEN BOW     SUNNY     69  32  25 W15       30.26F
VALENTINE NWR    N/A     67  35  31 W13         N/A
BUTTE            N/A     68  37  31 W13G21      N/A
HALSEY           N/A     70  35  27 W8G15       N/A
EWING            N/A     69  39  34 W12G22      N/A
$$

...OBSERVATIONS IN SOUTHWEST NEBRASKA AND FAR NORTHEAST COLORADO...

CITY           SKY/WX    TMP DP  RH WIND       PRES   REMARKS
HOLYOKE        FAIR      73  36  25 NW7       30.34F
IMPERIAL       SUNNY     69  35  28 W12       30.33F
OGALLALA       SUNNY     72  36  26 NW8G23    30.32F
NORTH PLATTE   SUNNY     70  39  32 W14       30.30F
MCCOOK         SUNNY     69  35  28 SW9       30.32F
LEXINGTON      SUNNY     69  30  23 W15       30.30F
STAPLETON        N/A     71  40  32 NW3         N/A
GOTHENBURG       N/A     65  25  22 W7          N/A
CALLAWAY         N/A     64  34  33 W17         N/A
$$

...OBSERVATIONS IN CENTRAL LINCOLN COUNTY AREA...

CITY           SKY/WX    TMP DP  RH WIND       PRES   REMARKS
N.P. AIRPORT   SUNNY     70  39  32 W14       30.30F
N.P. DOWNTOWN    N/A     68  41  36 W5G13       N/A
N.P. SOUTHEAST   N/A     68  39  34 W6G14       N/A
N.P. HILLCREST   N/A     68  40  35 W12G20      N/A
$$

...SOME OBSERVATIONS FROM AROUND THE REGION...

CITY           SKY/WX    TMP DP  RH WIND       PRES   REMARKS
DENVER         SUNNY     67  30  25 E5        30.43F
LARAMIE        SUNNY     56  31  38 NW5       30.49S
CHEYENNE       SUNNY     65  33  30 N12       30.44S
SCOTTSBLUFF    SUNNY     63  42  46 NW8       30.38R
RAPID CITY     SUNNY     69  41  36 N15       30.27F
BISMARCK       SUNNY     63  34  33 NW18G28   30.16F
PIERRE         SUNNY     64  41  42 W9        30.20S
SIOUX FALLS    SUNNY     64  40  41 W15G24    30.14F
OMAHA          SUNNY     70  40  33 W18       30.21F
GRAND ISLAND   SUNNY     70  34  26 W15       30.27F
KANSAS CITY    SUNNY     68  39  34 VRB5      30.26F
WICHITA        MOSUNNY   71  38  29 N8        30.32F
OKLAHOMA CITY  PTSUNNY   71  40  32 NE16G25   30.29F
DALLAS         CLOUDY    67  56  67 N17G25    30.18S
AMARILLO       SUNNY     68  34  28 E7        30.42S
DODGE CITY     SUNNY     68  27  21 VRB3      30.37F
HAYS           SUNNY     70  28  21 W7        30.34F
GOODLAND       SUNNY     69  35  28 W14G24    30.36F
$$




USA.gov is the U.S. government's official web portal to all federal, state and local government web resources and services.